Time,TemperatureF,DewpointF,PressureIn,WindDirection,WindDirectionDegrees,WindSpeedMPH,WindSpeedGustMPH,Humidity,HourlyPrecipIn,Conditions,Clouds,dailyrainin,SoftwareType,DateUTC
2013-01-17 00:00:00,32.9,30.6,30.26,WSW,250,0.0,0.0,91,0.00,,,0.00,Wunderground v.1.15,2013-01-17 08:00:00,
2013-01-17 00:10:00,32.6,30.3,30.26,WSW,250,0.0,0.0,91,0.00,,,0.00,Wunderground v.1.15,2013-01-17 08:10:00,
2013-01-17 00:15:00,32.6,30.3,30.26,WSW,250,0.0,0.0,91,0.00,,,0.00,Wunderground v.1.15,2013-01-17 08:15:00,
2013-01-17 00:25:00,32.4,30.1,30.27,WSW,250,0.0,0.0,91,0.00,,,0.00,Wunderground v.1.15,2013-01-17 08:25:00,
2013-01-17 00:30:00,32.4,30.3,30.26,WSW,250,0.0,0.0,92,0.00,,,0.00,Wunderground v.1.15,2013-01-17 08:30:00,
2013-01-17 00:40:00,32.5,30.4,30.27,WSW,250,0.0,0.0,92,0.00,,,0.00,Wunderground v.1.15,2013-01-17 08:40:00,
2013-01-17 00:45:00,32.5,30.4,30.27,WSW,250,0.0,0.0,92,0.00,,,0.00,Wunderground v.1.15,2013-01-17 08:45:00,
2013-01-17 00:50:00,32.6,30.5,30.27,WSW,250,0.0,0.0,92,0.00,,,0.00,Wunderground v.1.15,2013-01-17 08:50:00,
2013-01-17 01:00:00,32.5,30.4,30.26,WSW,250,0.0,0.0,92,0.00,,,0.00,Wunderground v.1.15,2013-01-17 09:00:00,
2013-01-17 01:10:00,32.5,30.4,30.26,WSW,250,0.0,0.0,92,0.00,,,0.00,Wunderground v.1.15,2013-01-17 09:10:00,
2013-01-17 01:15:00,32.4,30.3,30.26,WSW,250,0.0,0.0,92,0.00,,,0.00,Wunderground v.1.15,2013-01-17 09:15:00,
2013-01-17 01:25:00,32.4,30.6,30.26,WSW,250,0.0,0.0,93,0.00,,,0.00,Wunderground v.1.15,2013-01-17 09:25:00,
2013-01-17 01:30:00,32.4,30.6,30.26,WSW,250,0.0,0.0,93,0.00,,,0.00,Wunderground v.1.15,2013-01-17 09:30:00,
2013-01-17 01:40:00,32.5,30.7,30.26,WSW,250,0.0,0.0,93,0.00,,,0.00,Wunderground v.1.15,2013-01-17 09:40:00,
2013-01-17 01:50:00,32.4,30.6,30.26,WSW,250,0.0,0.0,93,0.00,,,0.00,Wunderground v.1.15,2013-01-17 09:50:00,
2013-01-17 02:00:00,32.3,30.2,30.26,WSW,250,0.0,0.0,92,0.00,,,0.00,Wunderground v.1.15,2013-01-17 10:00:00,
2013-01-17 02:10:00,32.1,30.0,30.27,WSW,250,0.0,0.0,92,0.00,,,0.00,Wunderground v.1.15,2013-01-17 10:10:00,
2013-01-17 02:20:00,31.9,30.1,30.27,WSW,250,0.0,0.0,93,0.00,,,0.00,Wunderground v.1.15,2013-01-17 10:20:00,
2013-01-17 02:25:00,31.7,29.6,30.27,WSW,250,0.0,0.0,92,0.00,,,0.00,Wunderground v.1.15,2013-01-17 10:25:00,
2013-01-17 02:35:00,31.6,29.8,30.26,WSW,250,0.0,0.0,93,0.00,,,0.00,Wunderground v.1.15,2013-01-17 10:35:00,
2013-01-17 02:40:00,31.8,30.0,30.26,WSW,250,0.0,0.0,93,0.00,,,0.00,Wunderground v.1.15,2013-01-17 10:40:00,
2013-01-17 02:50:00,31.6,29.8,30.26,WSW,250,0.0,0.0,93,0.00,,,0.00,Wunderground v.1.15,2013-01-17 10:50:00,
2013-01-17 03:00:00,31.5,29.7,30.26,WSW,250,0.0,0.0,93,0.00,,,0.00,Wunderground v.1.15,2013-01-17 11:00:00,
2013-01-17 03:10:00,31.7,30.2,30.25,WSW,250,0.0,0.0,94,0.00,,,0.00,Wunderground v.1.15,2013-01-17 11:10:00,
2013-01-17 03:20:00,32.4,30.9,30.25,WSW,250,0.0,0.0,94,0.00,,,0.00,Wunderground v.1.15,2013-01-17 11:20:00,
2013-01-17 03:30:00,32.6,31.1,30.25,WSW,250,0.0,0.0,94,0.00,,,0.00,Wunderground v.1.15,2013-01-17 11:30:00,
2013-01-17 03:35:00,32.6,30.8,30.25,WSW,250,0.0,0.0,93,0.00,,,0.00,Wunderground v.1.15,2013-01-17 11:35:00,
2013-01-17 03:45:00,32.8,31.0,30.25,WSW,250,0.0,0.0,93,0.00,,,0.00,Wunderground v.1.15,2013-01-17 11:45:00,
2013-01-17 03:55:00,33.0,31.2,30.25,WSW,250,0.0,0.0,93,0.00,,,0.00,Wunderground v.1.15,2013-01-17 11:55:00,
2013-01-17 04:00:00,33.0,31.2,30.25,WSW,250,0.0,0.0,93,0.00,,,0.00,Wunderground v.1.15,2013-01-17 12:00:00,
2013-01-17 04:10:00,32.9,30.8,30.25,WSW,250,0.0,0.0,92,0.00,,,0.00,Wunderground v.1.15,2013-01-17 12:10:00,
2013-01-17 04:15:00,32.8,30.7,30.25,WSW,250,0.0,0.0,92,0.00,,,0.00,Wunderground v.1.15,2013-01-17 12:15:00,
2013-01-17 04:25:00,32.7,30.6,30.25,WSW,250,0.0,0.0,92,0.00,,,0.00,Wunderground v.1.15,2013-01-17 12:25:00,
2013-01-17 04:35:00,32.7,30.6,30.24,WSW,250,0.0,0.0,92,0.00,,,0.00,Wunderground v.1.15,2013-01-17 12:35:00,
2013-01-17 04:45:00,32.9,30.8,30.24,WSW,250,0.0,0.0,92,0.00,,,0.00,Wunderground v.1.15,2013-01-17 12:45:00,
2013-01-17 04:50:00,32.9,30.8,30.24,WSW,250,0.0,0.0,92,0.00,,,0.00,Wunderground v.1.15,2013-01-17 12:50:00,
2013-01-17 05:00:00,32.6,30.5,30.24,WSW,250,0.0,0.0,92,0.00,,,0.00,Wunderground v.1.15,2013-01-17 13:00:00,
2013-01-17 05:10:00,32.3,30.2,30.24,WSW,250,0.0,0.0,92,0.00,,,0.00,Wunderground v.1.15,2013-01-17 13:10:00,
2013-01-17 05:20:00,31.9,29.8,30.24,WSW,250,0.0,0.0,92,0.00,,,0.00,Wunderground v.1.15,2013-01-17 13:20:00,
2013-01-17 05:25:00,31.8,29.7,30.24,WSW,250,0.0,0.0,92,0.00,,,0.00,Wunderground v.1.15,2013-01-17 13:25:00,
2013-01-17 05:35:00,31.8,30.0,30.24,WSW,250,0.0,0.0,93,0.00,,,0.00,Wunderground v.1.15,2013-01-17 13:35:00,
2013-01-17 05:45:00,31.8,30.0,30.23,WSW,250,0.0,0.0,93,0.00,,,0.00,Wunderground v.1.15,2013-01-17 13:45:00,
2013-01-17 05:55:00,31.6,29.8,30.23,WSW,250,0.0,0.0,93,0.00,,,0.00,Wunderground v.1.15,2013-01-17 13:55:00,
2013-01-17 06:00:00,31.5,29.7,30.23,WSW,250,0.0,0.0,93,0.00,,,0.00,Wunderground v.1.15,2013-01-17 14:00:00,
2013-01-17 06:10:00,31.2,29.4,30.23,WSW,250,0.0,0.0,93,0.00,,,0.00,Wunderground v.1.15,2013-01-17 14:10:00,
2013-01-17 06:15:00,31.0,29.2,30.24,WSW,250,0.0,0.0,93,0.00,,,0.00,Wunderground v.1.15,2013-01-17 14:15:00,
2013-01-17 06:25:00,30.9,29.1,30.24,WSW,250,0.0,0.0,93,0.00,,,0.00,Wunderground v.1.15,2013-01-17 14:25:00,
2013-01-17 06:35:00,30.7,28.9,30.24,WSW,250,0.0,0.0,93,0.00,,,0.00,Wunderground v.1.15,2013-01-17 14:35:00,
2013-01-17 06:45:00,30.7,28.9,30.24,WSW,250,0.0,0.0,93,0.00,,,0.00,Wunderground v.1.15,2013-01-17 14:45:00,
2013-01-17 06:50:00,30.7,28.9,30.24,WSW,250,0.0,0.0,93,0.00,,,0.00,Wunderground v.1.15,2013-01-17 14:50:00,
2013-01-17 07:00:00,30.6,28.8,30.24,WSW,250,0.0,0.0,93,0.00,,,0.00,Wunderground v.1.15,2013-01-17 15:00:00,
2013-01-17 07:10:00,30.5,28.7,30.24,WSW,250,0.0,0.0,93,0.00,,,0.00,Wunderground v.1.15,2013-01-17 15:10:00,
2013-01-17 07:20:00,30.4,28.9,30.24,WSW,250,0.0,0.0,94,0.00,,,0.00,Wunderground v.1.15,2013-01-17 15:20:00,
2013-01-17 07:30:00,30.3,28.8,30.24,WSW,250,0.0,0.0,94,0.00,,,0.00,Wunderground v.1.15,2013-01-17 15:30:00,
2013-01-17 07:35:00,30.2,28.7,30.24,WSW,250,0.0,0.0,94,0.00,,,0.00,Wunderground v.1.15,2013-01-17 15:35:00,
2013-01-17 07:45:00,30.3,28.8,30.25,WSW,250,0.0,0.0,94,0.00,,,0.00,Wunderground v.1.15,2013-01-17 15:45:00,
2013-01-17 07:50:00,30.4,28.9,30.24,WSW,250,0.0,0.0,94,0.00,,,0.00,Wunderground v.1.15,2013-01-17 15:50:00,
2013-01-17 08:00:00,30.6,29.1,30.25,WSW,250,0.0,0.0,94,0.00,,,0.00,Wunderground v.1.15,2013-01-17 16:00:00,
2013-01-17 08:10:00,31.1,29.8,30.25,WSW,250,0.0,0.0,95,0.00,,,0.00,Wunderground v.1.15,2013-01-17 16:10:00,
2013-01-17 08:15:00,31.3,30.0,30.25,WSW,250,0.0,0.0,95,0.00,,,0.00,Wunderground v.1.15,2013-01-17 16:15:00,
2013-01-17 08:25:00,31.8,30.5,30.26,WSW,250,0.0,0.0,95,0.00,,,0.00,Wunderground v.1.15,2013-01-17 16:25:00,
2013-01-17 08:30:00,32.0,30.7,30.26,WSW,250,0.0,0.0,95,0.00,,,0.00,Wunderground v.1.15,2013-01-17 16:30:00,
2013-01-17 08:40:00,32.9,31.6,30.26,WSW,250,0.0,0.0,95,0.00,,,0.00,Wunderground v.1.15,2013-01-17 16:40:00,
2013-01-17 08:50:00,34.4,33.1,30.26,WSW,250,0.0,0.0,95,0.00,,,0.00,Wunderground v.1.15,2013-01-17 16:50:00,
2013-01-17 09:00:00,36.1,35.1,30.26,WSW,250,0.0,0.0,96,0.00,,,0.00,Wunderground v.1.15,2013-01-17 17:00:00,
2013-01-17 09:10:00,37.3,36.3,30.26,WSW,250,0.0,0.0,96,0.00,,,0.00,Wunderground v.1.15,2013-01-17 17:10:00,
2013-01-17 09:20:00,38.7,37.7,30.26,NW,304,0.0,0.0,96,0.00,,,0.00,Wunderground v.1.15,2013-01-17 17:20:00,
2013-01-17 09:30:00,41.3,37.1,30.26,NW,304,0.0,0.0,85,0.00,,,0.00,Wunderground v.1.15,2013-01-17 17:30:00,
2013-01-17 09:35:00,42.5,38.0,30.26,NW,304,0.0,0.0,84,0.00,,,0.00,Wunderground v.1.15,2013-01-17 17:35:00,
2013-01-17 09:40:00,44.4,37.3,30.26,SSE,159,0.0,1.0,76,0.00,,,0.00,Wunderground v.1.15,2013-01-17 17:40:00,
2013-01-17 09:50:00,47.3,37.6,30.27,SE,140,0.0,0.0,69,0.00,,,0.00,Wunderground v.1.15,2013-01-17 17:50:00,
2013-01-17 09:55:00,48.5,38.0,30.27,ENE,71,0.0,0.0,67,0.00,,,0.00,Wunderground v.1.15,2013-01-17 17:55:00,
2013-01-17 10:00:00,49.4,37.3,30.26,East,84,0.0,2.0,63,0.00,,,0.00,Wunderground v.1.15,2013-01-17 18:00:00,
2013-01-17 10:10:00,50.8,38.7,30.26,East,101,0.0,0.0,63,0.00,,,0.00,Wunderground v.1.15,2013-01-17 18:10:00,
2013-01-17 10:20:00,52.1,37.8,30.26,WNW,296,0.0,0.0,58,0.00,,,0.00,Wunderground v.1.15,2013-01-17 18:20:00,
2013-01-17 10:30:00,53.2,37.9,30.26,NNW,331,1.0,1.0,56,0.00,,,0.00,Wunderground v.1.15,2013-01-17 18:30:00,
2013-01-17 10:40:00,53.6,37.3,30.25,NNW,329,1.0,1.0,54,0.00,,,0.00,Wunderground v.1.15,2013-01-17 18:40:00,
2013-01-17 10:45:00,54.1,37.3,30.25,NNE,14,1.0,1.0,53,0.00,,,0.00,Wunderground v.1.15,2013-01-17 18:45:00,
2013-01-17 10:55:00,54.6,37.3,30.25,NE,43,0.0,1.0,52,0.00,,,0.00,Wunderground v.1.15,2013-01-17 18:55:00,
2013-01-17 11:00:00,55.1,37.8,30.24,WNW,292,0.0,0.0,52,0.00,,,0.00,Wunderground v.1.15,2013-01-17 19:00:00,
2013-01-17 11:10:00,54.9,37.6,30.24,North,5,0.0,0.0,52,0.00,,,0.00,Wunderground v.1.15,2013-01-17 19:10:00,
2013-01-17 11:20:00,55.8,36.9,30.23,NW,310,0.0,0.0,49,0.00,,,0.00,Wunderground v.1.15,2013-01-17 19:20:00,
2013-01-17 11:30:00,56.7,37.2,30.23,NNW,348,1.0,1.0,48,0.00,,,0.00,Wunderground v.1.15,2013-01-17 19:30:00,
2013-01-17 11:35:00,57.1,37.6,30.23,NE,53,1.0,1.0,48,0.00,,,0.00,Wunderground v.1.15,2013-01-17 19:35:00,
2013-01-17 11:45:00,57.7,37.0,30.22,North,355,0.0,0.0,46,0.00,,,0.00,Wunderground v.1.15,2013-01-17 19:45:00,
2013-01-17 11:50:00,58.2,36.4,30.22,NNW,339,0.0,0.0,44,0.00,,,0.00,Wunderground v.1.15,2013-01-17 19:50:00,
2013-01-17 12:00:00,58.6,35.6,30.21,ESE,109,0.0,0.0,42,0.00,,,0.00,Wunderground v.1.15,2013-01-17 20:00:00,
2013-01-17 12:10:00,58.6,36.2,30.20,SE,137,0.0,0.0,43,0.00,,,0.00,Wunderground v.1.15,2013-01-17 20:10:00,
2013-01-17 12:20:00,59.2,36.7,30.20,East,92,0.0,0.0,43,0.00,,,0.00,Wunderground v.1.15,2013-01-17 20:20:00,
2013-01-17 12:30:00,59.3,36.8,30.20,SE,126,0.0,0.0,43,0.00,,,0.00,Wunderground v.1.15,2013-01-17 20:30:00,
2013-01-17 12:40:00,60.9,37.0,30.19,SE,141,0.0,0.0,41,0.00,,,0.00,Wunderground v.1.15,2013-01-17 20:40:00,
2013-01-17 12:45:00,61.2,36.7,30.19,SSE,161,0.0,0.0,40,0.00,,,0.00,Wunderground v.1.15,2013-01-17 20:45:00,
2013-01-17 12:55:00,62.0,37.4,30.19,NE,44,0.0,0.0,40,0.00,,,0.00,Wunderground v.1.15,2013-01-17 20:55:00,
2013-01-17 13:00:00,62.1,36.2,30.19,ENE,75,0.0,0.0,38,0.00,,,0.00,Wunderground v.1.15,2013-01-17 21:00:00,
2013-01-17 13:10:00,62.5,36.5,30.18,WSW,252,0.0,0.0,38,0.00,,,0.00,Wunderground v.1.15,2013-01-17 21:10:00,
2013-01-17 13:20:00,63.0,37.6,30.18,North,5,0.0,0.0,39,0.00,,,0.00,Wunderground v.1.15,2013-01-17 21:20:00,
2013-01-17 13:30:00,63.0,37.6,30.17,SSE,165,0.0,0.0,39,0.00,,,0.00,Wunderground v.1.15,2013-01-17 21:30:00,
2013-01-17 13:35:00,63.3,37.9,30.17,ENE,75,0.0,0.0,39,0.00,,,0.00,Wunderground v.1.15,2013-01-17 21:35:00,
2013-01-17 13:45:00,63.6,38.8,30.17,ESE,121,0.0,0.0,40,0.00,,,0.00,Wunderground v.1.15,2013-01-17 21:45:00,
2013-01-17 13:55:00,64.4,38.2,30.17,ENE,65,0.0,0.0,38,0.00,,,0.00,Wunderground v.1.15,2013-01-17 21:55:00,
2013-01-17 14:00:00,64.7,38.5,30.16,SE,136,0.0,0.0,38,0.00,,,0.00,Wunderground v.1.15,2013-01-17 22:00:00,
2013-01-17 14:10:00,64.5,38.3,30.16,SE,132,0.0,0.0,38,0.00,,,0.00,Wunderground v.1.15,2013-01-17 22:10:00,
2013-01-17 14:20:00,65.3,38.3,30.16,ESE,106,0.0,1.0,37,0.00,,,0.00,Wunderground v.1.15,2013-01-17 22:20:00,
2013-01-17 14:25:00,64.9,37.3,30.16,ESE,110,1.0,1.0,36,0.00,,,0.00,Wunderground v.1.15,2013-01-17 22:25:00,
2013-01-17 14:35:00,65.0,38.1,30.16,NNE,15,0.0,1.0,37,0.00,,,0.00,Wunderground v.1.15,2013-01-17 22:35:00,
2013-01-17 14:40:00,65.4,37.7,30.15,NW,315,0.0,0.0,36,0.00,,,0.00,Wunderground v.1.15,2013-01-17 22:40:00,
2013-01-17 14:50:00,65.7,38.0,30.15,East,81,0.0,1.0,36,0.00,,,0.00,Wunderground v.1.15,2013-01-17 22:50:00,
2013-01-17 15:00:00,65.1,37.5,30.15,North,360,0.0,0.0,36,0.00,,,0.00,Wunderground v.1.15,2013-01-17 23:00:00,
2013-01-17 15:10:00,65.0,37.4,30.15,ENE,76,0.0,0.0,36,0.00,,,0.00,Wunderground v.1.15,2013-01-17 23:10:00,
2013-01-17 15:20:00,64.5,36.9,30.15,SE,137,0.0,0.0,36,0.00,,,0.00,Wunderground v.1.15,2013-01-17 23:20:00,
2013-01-17 15:25:00,64.6,38.4,30.15,SE,137,0.0,0.0,38,0.00,,,0.00,Wunderground v.1.15,2013-01-17 23:25:00,
2013-01-17 15:35:00,64.3,37.5,30.15,SSE,147,0.0,0.0,37,0.00,,,0.00,Wunderground v.1.15,2013-01-17 23:35:00,
2013-01-17 15:40:00,64.1,37.3,30.15,SE,146,0.0,0.0,37,0.00,,,0.00,Wunderground v.1.15,2013-01-17 23:40:00,
2013-01-17 15:50:00,63.9,39.7,30.15,North,5,0.0,0.0,41,0.00,,,0.00,Wunderground v.1.15,2013-01-17 23:50:00,
2013-01-17 16:00:00,63.5,40.6,30.15,South,182,0.0,0.0,43,0.00,,,0.00,Wunderground v.1.15,2013-01-18 00:00:00,
2013-01-17 16:10:00,62.3,41.2,30.15,South,182,0.0,0.0,46,0.00,,,0.00,Wunderground v.1.15,2013-01-18 00:10:00,
2013-01-17 16:20:00,60.8,40.4,30.15,South,182,0.0,0.0,47,0.00,,,0.00,Wunderground v.1.15,2013-01-18 00:20:00,
2013-01-17 16:30:00,58.9,40.3,30.15,South,182,0.0,0.0,50,0.00,,,0.00,Wunderground v.1.15,2013-01-18 00:30:00,
2013-01-17 16:40:00,57.1,41.1,30.15,South,182,0.0,0.0,55,0.00,,,0.00,Wunderground v.1.15,2013-01-18 00:40:00,
2013-01-17 16:50:00,55.3,40.8,30.15,South,182,0.0,0.0,58,0.00,,,0.00,Wunderground v.1.15,2013-01-18 00:50:00,
2013-01-17 17:00:00,53.9,41.2,30.15,South,182,0.0,0.0,62,0.00,,,0.00,Wunderground v.1.15,2013-01-18 01:00:00,
2013-01-17 17:10:00,52.4,41.0,30.15,South,182,0.0,0.0,65,0.00,,,0.00,Wunderground v.1.15,2013-01-18 01:10:00,
2013-01-17 17:15:00,51.7,41.1,30.15,South,182,0.0,0.0,67,0.00,,,0.00,Wunderground v.1.15,2013-01-18 01:15:00,
2013-01-17 17:25:00,50.5,40.7,30.15,South,182,0.0,0.0,69,0.00,,,0.00,Wunderground v.1.15,2013-01-18 01:25:00,
2013-01-17 17:35:00,49.3,40.3,30.15,South,182,0.0,0.0,71,0.00,,,0.00,Wunderground v.1.15,2013-01-18 01:35:00,
2013-01-17 17:45:00,48.3,39.7,30.16,South,182,0.0,0.0,72,0.00,,,0.00,Wunderground v.1.15,2013-01-18 01:45:00,
2013-01-17 17:50:00,47.8,39.2,30.16,South,182,0.0,0.0,72,0.00,,,0.00,Wunderground v.1.15,2013-01-18 01:50:00,
2013-01-17 18:00:00,46.8,38.9,30.16,South,182,0.0,0.0,74,0.00,,,0.00,Wunderground v.1.15,2013-01-18 02:00:00,
2013-01-17 18:10:00,46.0,38.5,30.16,South,182,0.0,0.0,75,0.00,,,0.00,Wunderground v.1.15,2013-01-18 02:10:00,
2013-01-17 18:20:00,45.5,38.4,30.16,South,182,0.0,0.0,76,0.00,,,0.00,Wunderground v.1.15,2013-01-18 02:20:00,
2013-01-17 18:30:00,45.0,38.2,30.16,South,182,0.0,0.0,77,0.00,,,0.00,Wunderground v.1.15,2013-01-18 02:30:00,
2013-01-17 18:40:00,44.4,38.0,30.16,South,182,0.0,0.0,78,0.00,,,0.00,Wunderground v.1.15,2013-01-18 02:40:00,
2013-01-17 18:45:00,44.1,37.7,30.16,South,182,0.0,0.0,78,0.00,,,0.00,Wunderground v.1.15,2013-01-18 02:45:00,
2013-01-17 18:55:00,43.6,37.5,30.16,South,182,0.0,0.0,79,0.00,,,0.00,Wunderground v.1.15,2013-01-18 02:55:00,
2013-01-17 19:00:00,43.3,37.2,30.16,South,182,0.0,0.0,79,0.00,,,0.00,Wunderground v.1.15,2013-01-18 03:00:00,
2013-01-17 19:05:00,43.1,37.3,30.16,South,182,0.0,0.0,80,0.00,,,0.00,Wunderground v.1.15,2013-01-18 03:05:00,
2013-01-17 19:15:00,42.4,36.7,30.16,South,182,0.0,0.0,80,0.00,,,0.00,Wunderground v.1.15,2013-01-18 03:15:00,
2013-01-17 19:20:00,42.0,36.6,30.16,South,182,0.0,0.0,81,0.00,,,0.00,Wunderground v.1.15,2013-01-18 03:20:00,
2013-01-17 19:30:00,41.4,36.3,30.16,South,182,0.0,0.0,82,0.00,,,0.00,Wunderground v.1.15,2013-01-18 03:30:00,
2013-01-17 19:40:00,40.9,36.1,30.16,South,182,0.0,0.0,83,0.00,,,0.00,Wunderground v.1.15,2013-01-18 03:40:00,
2013-01-17 19:50:00,40.4,35.6,30.16,South,182,0.0,0.0,83,0.00,,,0.00,Wunderground v.1.15,2013-01-18 03:50:00,
2013-01-17 20:00:00,40.1,35.4,30.16,South,182,0.0,0.0,83,0.00,,,0.00,Wunderground v.1.15,2013-01-18 04:00:00,
2013-01-17 20:10:00,39.8,35.4,30.16,South,182,0.0,0.0,84,0.00,,,0.00,Wunderground v.1.15,2013-01-18 04:10:00,
2013-01-17 20:20:00,39.5,35.1,30.16,South,182,0.0,0.0,84,0.00,,,0.00,Wunderground v.1.15,2013-01-18 04:20:00,
2013-01-17 20:30:00,39.4,35.3,30.17,South,182,0.0,0.0,85,0.00,,,0.00,Wunderground v.1.15,2013-01-18 04:30:00,
2013-01-17 20:40:00,39.5,35.4,30.16,South,182,0.0,0.0,85,0.00,,,0.00,Wunderground v.1.15,2013-01-18 04:40:00,
2013-01-17 20:50:00,39.4,35.3,30.17,South,182,0.0,0.0,85,0.00,,,0.00,Wunderground v.1.15,2013-01-18 04:50:00,
2013-01-17 21:05:00,39.2,35.1,30.17,South,182,0.0,0.0,85,0.00,,,0.00,Wunderground v.1.15,2013-01-18 05:05:00,
2013-01-17 21:10:00,39.1,35.0,30.17,South,182,0.0,0.0,85,0.00,,,0.00,Wunderground v.1.15,2013-01-18 05:10:00,
2013-01-17 21:15:00,39.1,35.3,30.17,South,182,0.0,0.0,86,0.00,,,0.00,Wunderground v.1.15,2013-01-18 05:15:00,
2013-01-17 21:25:00,38.9,35.1,30.17,South,182,0.0,0.0,86,0.00,,,0.00,Wunderground v.1.15,2013-01-18 05:25:00,
2013-01-17 21:30:00,38.8,35.0,30.17,South,182,0.0,0.0,86,0.00,,,0.00,Wunderground v.1.15,2013-01-18 05:30:00,
2013-01-17 21:35:00,38.8,35.0,30.17,South,182,0.0,0.0,86,0.00,,,0.00,Wunderground v.1.15,2013-01-18 05:35:00,
2013-01-17 21:40:00,38.7,34.9,30.17,South,182,0.0,0.0,86,0.00,,,0.00,Wunderground v.1.15,2013-01-18 05:40:00,
2013-01-17 21:45:00,38.6,34.8,30.17,South,182,0.0,0.0,86,0.00,,,0.00,Wunderground v.1.15,2013-01-18 05:45:00,
2013-01-17 21:55:00,38.4,34.6,30.17,South,182,0.0,0.0,86,0.00,,,0.00,Wunderground v.1.15,2013-01-18 05:55:00,
2013-01-17 22:00:00,38.3,34.5,30.17,South,182,0.0,0.0,86,0.00,,,0.00,Wunderground v.1.15,2013-01-18 06:00:00,
2013-01-17 22:10:00,38.1,34.6,30.17,South,182,0.0,0.0,87,0.00,,,0.00,Wunderground v.1.15,2013-01-18 06:10:00,
2013-01-17 22:20:00,38.0,34.5,30.17,South,182,0.0,0.0,87,0.00,,,0.00,Wunderground v.1.15,2013-01-18 06:20:00,
2013-01-17 22:25:00,38.0,34.5,30.17,South,182,0.0,0.0,87,0.00,,,0.00,Wunderground v.1.15,2013-01-18 06:25:00,
2013-01-17 22:35:00,37.9,34.4,30.17,South,182,0.0,0.0,87,0.00,,,0.00,Wunderground v.1.15,2013-01-18 06:35:00,
2013-01-17 22:40:00,37.9,34.4,30.17,South,182,0.0,0.0,87,0.00,,,0.00,Wunderground v.1.15,2013-01-18 06:40:00,
2013-01-17 22:45:00,37.8,34.6,30.17,South,182,0.0,0.0,88,0.00,,,0.00,Wunderground v.1.15,2013-01-18 06:45:00,
2013-01-17 22:55:00,37.6,34.4,30.17,South,182,0.0,0.0,88,0.00,,,0.00,Wunderground v.1.15,2013-01-18 06:55:00,
2013-01-17 23:00:00,37.5,34.3,30.17,South,182,0.0,0.0,88,0.00,,,0.00,Wunderground v.1.15,2013-01-18 07:00:00,
2013-01-17 23:05:00,37.4,34.2,30.17,South,182,0.0,0.0,88,0.00,,,0.00,Wunderground v.1.15,2013-01-18 07:05:00,
2013-01-17 23:15:00,37.2,34.0,30.17,South,182,0.0,0.0,88,0.00,,,0.00,Wunderground v.1.15,2013-01-18 07:15:00,
2013-01-17 23:25:00,36.9,33.7,30.17,South,182,0.0,0.0,88,0.00,,,0.00,Wunderground v.1.15,2013-01-18 07:25:00,
2013-01-17 23:35:00,36.7,33.8,30.18,South,182,0.0,0.0,89,0.00,,,0.00,Wunderground v.1.15,2013-01-18 07:35:00,
2013-01-17 23:40:00,36.6,33.7,30.18,South,182,0.0,0.0,89,0.00,,,0.00,Wunderground v.1.15,2013-01-18 07:40:00,
2013-01-17 23:50:00,36.3,33.4,30.18,South,182,0.0,0.0,89,0.00,,,0.00,Wunderground v.1.15,2013-01-18 07:50:00,